GW0939 Weather Reports


time (UTC)temp
C
wind
direction
speed
KPH
gust
KPH
rain 1hr
cm
rain 24hr
cm
rain mn
cm
humidity
%
barometer
mb
20260504110604 5 290 0.0 0.0 0.00 0.00 0.00 72 1011.9
20260504100607 5 219 0.0 0.0 0.00 0.00 0.00 71 1011.6
20260504100104 5 219 0.0 0.0 0.00 0.00 0.00 71 1011.6
20260504090105 5 219 0.0 0.0 0.00 0.00 0.00 73 1011.5
20260504081607 4 219 0.0 0.0 0.00 0.00 0.00 75 1011.4
20260504080605 4 219 0.0 0.0 0.00 0.00 0.00 75 1011.3
20260504080104 4 219 0.0 0.0 0.00 0.00 0.00 74 1011.3
20260504070105 4 219 0.0 0.0 0.00 0.00 0.00 73 1011.1
20260504060104 5 219 0.0 0.0 0.00 0.00 0.00 70 1011.0
20260504050604 6 219 0.0 0.0 0.00 0.00 0.00 68 1011.1
20260504045604 6 219 0.0 0.0 0.00 0.00 0.00 68 1010.9
20260504045103 6 219 0.0 0.0 0.00 0.00 0.00 67 1011.0
20260504044606 6 219 0.0 0.0 0.00 0.00 0.00 67 1010.9
20260504044102 6 219 0.0 0.0 0.00 0.00 0.00 67 1010.9
20260504043604 6 219 0.0 0.0 0.00 0.00 0.00 66 1010.9
20260504043102 6 219 0.0 0.0 0.00 0.00 0.00 66 1010.9
20260504042605 6 219 0.0 0.0 0.00 0.00 0.00 67 1011.0
20260504042102 6 219 0.0 0.0 0.00 0.00 0.00 67 1011.0
20260504041104 6 219 0.0 0.0 0.00 0.00 0.00 68 1010.9
20260504040605 6 219 0.0 0.0 0.00 0.00 0.00 68 1010.8
20260504040105 6 219 0.0 0.0 0.00 0.00 0.00 67 1010.8
20260504035607 6 219 0.0 0.0 0.00 0.00 0.00 67 1010.7
20260504035105 6 219 0.0 0.0 0.00 0.00 0.00 67 1010.7
20260504034606 6 219 0.0 0.0 0.00 0.00 0.00 67 1010.7
20260504034105 7 219 0.0 0.0 0.00 0.00 0.00 67 1010.8
20260504033606 7 219 0.0 0.0 0.00 0.00 0.00 66 1010.7
20260504033104 7 219 0.0 0.0 0.00 0.00 0.00 66 1010.7
20260504032605 7 219 0.0 0.0 0.00 0.00 0.00 66 1010.7
20260504032106 7 219 0.0 0.0 0.00 0.00 0.00 65 1010.6
20260504031605 7 219 0.0 0.0 0.00 0.00 0.00 65 1010.6
20260504031104 7 219 0.0 0.0 0.00 0.00 0.00 64 1010.7
20260504030606 7 219 0.0 0.0 0.00 0.00 0.00 62 1010.7
20260504030104 7 219 0.0 0.0 0.00 0.00 0.00 62 1010.7
20260504025605 7 219 0.0 0.0 0.00 0.00 0.00 61 1010.7
20260504025103 7 219 0.0 0.0 0.00 0.00 0.00 60 1010.6
20260504024605 7 219 0.0 0.0 0.00 0.00 0.00 59 1010.7
20260504024104 7 219 0.0 0.0 0.00 0.00 0.00 58 1010.8
20260504023603 8 219 0.0 0.0 0.00 0.00 0.00 58 1010.8
20260504023103 8 219 0.0 0.0 0.00 0.00 0.00 58 1010.7
20260504022604 8 219 0.0 0.0 0.00 0.00 0.00 58 1010.8
20260504021605 8 219 0.0 0.0 0.00 0.00 0.00 57 1010.7
20260504021103 8 219 0.0 0.0 0.00 0.00 0.00 57 1010.7
20260504020604 8 219 0.0 0.0 0.00 0.00 0.00 56 1010.7
20260504015607 9 219 0.0 0.0 0.00 0.00 0.00 54 1010.7
20260504015106 9 219 0.0 0.0 0.00 0.00 0.00 53 1010.7
20260504014606 9 219 0.0 0.0 0.00 0.00 0.00 52 1010.7
20260504014105 10 219 0.0 0.0 0.00 0.00 0.00 52 1010.8
20260504013606 10 219 0.0 0.0 0.00 0.00 0.00 51 1010.8
20260504013105 10 219 0.0 0.0 0.00 0.00 0.00 50 1010.7
20260504012608 10 219 0.0 0.0 0.00 0.00 0.00 49 1010.7
20260504012106 10 219 0.0 0.0 0.00 0.00 0.00 49 1010.5
20260504011605 10 219 0.0 0.0 0.00 0.00 0.00 48 1010.7
20260504011104 11 219 0.0 0.0 0.00 0.00 0.00 47 1010.6
20260504010607 11 219 0.0 0.0 0.00 0.00 0.00 48 1010.6
20260504010106 11 219 0.0 0.0 0.00 0.00 0.00 46 1010.5
20260504005607 11 219 0.0 0.0 0.00 0.00 0.00 46 1010.5
20260504005103 11 219 0.0 0.0 0.00 0.00 0.00 46 1010.4
20260504004607 11 219 0.0 1.6 0.00 0.00 0.00 46 1010.3
20260504004105 11 219 0.0 3.2 0.00 0.00 0.00 45 1010.2
20260504003605 11 220 0.0 3.2 0.00 0.00 0.00 44 1010.2
20260504003106 12 245 0.0 3.2 0.00 0.00 0.00 44 1010.2
20260504002607 12 245 1.6 3.2 0.00 0.00 0.00 44 1010.2
20260504002105 12 254 0.0 3.2 0.00 0.00 0.00 44 1010.0
20260504001104 12 222 1.6 4.8 0.00 0.00 0.00 42 1009.9
20260503235105 13 237 1.6 3.2 0.00 0.00 0.00 41 1009.4
20260503234607 13 205 1.6 3.2 0.00 0.00 0.00 41 1009.4
20260503234106 13 201 0.0 3.2 0.00 0.00 0.00 41 1009.4
20260503233605 13 175 0.0 3.2 0.00 0.00 0.00 39 1009.4
20260503233106 13 150 0.0 4.8 0.00 0.00 0.00 40 1009.3
20260503232607 13 100 1.6 4.8 0.00 0.00 0.00 39 1009.4
20260503232105 13 277 1.6 4.8 0.00 0.00 0.00 38 1009.4
20260503231607 13 228 0.0 4.8 0.00 0.00 0.00 37 1009.2
20260503231104 13 212 0.0 4.8 0.00 0.00 0.00 37 1009.2
20260503230604 13 206 1.6 4.8 0.00 0.00 0.00 37 1009.2
20260503225605 13 306 1.6 4.8 0.00 0.00 0.00 36 1009.1
20260503225102 13 204 1.6 4.8 0.00 0.00 0.00 36 1009.0
20260503223605 13 213 1.6 6.4 0.00 0.00 0.00 34 1009.0
20260503223102 14 291 1.6 6.4 0.00 0.00 0.00 34 1009.0
20260503222604 14 242 1.6 6.4 0.00 0.00 0.00 34 1008.9
20260503222106 14 290 1.6 6.4 0.00 0.00 0.00 34 1008.8
20260503221605 14 243 3.2 8.0 0.00 0.00 0.00 33 1008.9
20260503221102 14 237 3.2 8.0 0.00 0.00 0.00 33 1008.8
20260503220603 14 0 3.2 8.0 0.00 0.00 0.00 32 1008.9
20260503215605 14 17 3.2 17.7 0.00 0.00 0.00 33 1008.7
20260503214606 14 251 3.2 9.7 0.00 0.00 0.00 32 1008.7
20260503214104 14 327 4.8 12.9 0.00 0.00 0.00 30 1008.7
20260503213606 14 272 3.2 12.9 0.00 0.00 0.00 32 1008.8
20260503213104 14 34 3.2 8.0 0.00 0.00 0.00 31 1008.6
20260503212607 14 244 3.2 11.3 0.00 0.00 0.00 29 1008.6
20260503212103 14 290 3.2 11.3 0.00 0.00 0.00 30 1008.6
20260503211606 14 348 3.2 14.5 0.00 0.00 0.00 30 1008.5
20260503211104 14 240 4.8 17.7 0.00 0.00 0.00 31 1008.6
20260503210104 14 5 3.2 14.5 0.00 0.00 0.00 32 1008.6
20260503205606 14 322 4.8 14.5 0.00 0.00 0.00 31 1008.6
20260503205104 14 80 4.8 12.9 0.00 0.00 0.00 32 1008.7
20260503204607 15 24 4.8 12.9 0.00 0.00 0.00 32 1008.7
20260503204104 15 216 4.8 14.5 0.00 0.00 0.00 29 1008.5
20260503203104 15 355 3.2 8.0 0.00 0.00 0.00 31 1008.5
20260503202606 15 235 3.2 8.0 0.00 0.00 0.00 33 1008.8
20260503201106 15 288 3.2 16.1 0.00 0.00 0.00 33 1008.7
20260503200605 15 250 3.2 16.1 0.00 0.00 0.00 33 1008.8
20260503200105 15 321 3.2 9.7 0.00 0.00 0.00 30 1008.7
20260503195607 15 242 3.2 8.0 0.00 0.00 0.00 32 1008.7
20260503195104 14 288 3.2 11.3 0.00 0.00 0.00 33 1008.9
20260503194606 14 0 3.2 11.3 0.00 0.00 0.00 34 1009.0
20260503194103 14 69 4.8 11.3 0.00 0.00 0.00 33 1009.1
20260503193605 14 257 4.8 11.3 0.00 0.00 0.00 33 1009.3
20260503193103 14 254 3.2 14.5 0.00 0.00 0.00 33 1009.4
20260503192605 14 282 3.2 14.5 0.00 0.00 0.00 32 1009.4
20260503191608 14 336 6.4 16.1 0.00 0.00 0.00 31 1009.4
20260503191104 14 0 4.8 16.1 0.00 0.00 0.00 35 1009.5
20260503190104 13 337 4.8 12.9 0.00 0.00 0.00 35 1009.4
20260503185608 13 31 6.4 12.9 0.00 0.00 0.00 34 1009.6
20260503185105 13 213 4.8 12.9 0.00 0.00 0.00 32 1009.6
20260503184609 14 252 4.8 12.9 0.00 0.00 0.00 34 1009.6
20260503184103 14 227 4.8 14.5 0.00 0.00 0.00 35 1009.6
20260503183605 14 98 3.2 14.5 0.00 0.00 0.00 36 1009.7
20260503183104 13 5 3.2 9.7 0.00 0.00 0.00 36 1009.8
20260503182606 13 328 4.8 8.0 0.00 0.00 0.00 35 1009.8
20260503182104 13 331 4.8 12.9 0.00 0.00 0.00 37 1009.7
20260503181605 13 297 4.8 12.9 0.00 0.00 0.00 38 1009.8
20260503181104 13 319 3.2 11.3 0.00 0.00 0.00 37 1009.9
20260503175606 12 234 3.2 9.7 0.00 0.00 0.00 38 1010.0
20260503174608 12 278 3.2 9.7 0.00 0.00 0.00 39 1010.2
20260503174105 11 239 4.8 11.3 0.00 0.00 0.00 42 1010.3
20260503173605 11 269 4.8 11.3 0.00 0.00 0.00 39 1010.3
20260503173105 11 346 4.8 14.5 0.00 0.00 0.00 40 1010.4
20260503172604 11 213 4.8 16.1 0.00 0.00 0.00 41 1010.4
20260503171606 11 199 3.2 12.9 0.00 0.00 0.00 41 1010.4
20260503170606 11 233 3.2 9.7 0.00 0.00 0.00 41 1010.4
20260503170105 11 252 3.2 8.0 0.00 0.00 0.00 43 1010.5
20260503160104 11 202 4.8 12.9 0.00 0.00 0.00 39 1010.5
20260503150607 12 232 4.8 12.9 0.00 0.00 0.00 35 1010.4
20260503150103 11 294 3.2 9.7 0.00 0.00 0.00 39 1010.5
20260503140106 10 215 3.2 14.5 0.00 0.00 0.00 47 1010.7
20260503131106 8 188 3.2 11.3 0.00 0.00 0.00 54 1010.8
20260503130605 8 90 3.2 11.3 0.00 0.00 0.00 54 1010.8
20260503130105 8 252 3.2 11.3 0.00 0.00 0.00 54 1010.9